Auburn, IN

10:39 AM EDT on August 21, 2019 (GMT -0400)
Auburn

Weather History for KGWB - May, 2019

Change the Weather History Date:

Wednesday, May 1, 2019

  Actual Average (KFWA) Record (KFWA)
Temperature  
Mean Temperature 56 °F -  
Max Temperature 69 °F 66 °F 88 °F (1942)
Min Temperature 42 °F 44 °F 27 °F (1963)
Degree Days  
Heating Degree Days 10    
Growing Degree Days 6 (Base 50)    
Moisture  
Dew Point 54 °F    
Average Humidity 91    
Maximum Humidity 100    
Minimum Humidity 68    
Precipitation  
Precipitation 0.33 in - - ()
Sea Level Pressure  
Sea Level Pressure 30.01 in    
Wind  
Wind Speed 11 mph (South)    
Max Wind Speed 18 mph    
Max Gust Speed 30 mph    
Visibility 8 miles    
Events Rain    
Averages and records for this station are not official NWS values.
T = Trace of Precipitation, MM = Missing Value Source: NWS Daily Summary

Daily Weather History Graph

Daily Weather History Graph

Search for Another Location

Airport or City:

Astronomy

May. 01, 2019 Rise Set
Actual Time 6:37 AM EDT 8:37 PM EDT
Civil Twilight 6:07 AM EDT 9:07 PM EDT
Nautical Twilight 5:31 AM EDT 9:44 PM EDT
Astronomical Twilight 4:51 AM EDT 10:24 PM EDT
Moon 5:25 AM EDT (5/1) 5:21 PM EDT (5/1)
Length of Visible Light 14h 59m
Length of Day
13h 59m
Waning Crescent, 11% of the Moon is Illuminated
May 1
Waning Crescent
May 4
New
May 11
First Quarter
May 18
Full
May 26
Last Quarter

Hourly Weather History & Observations

Time (EDT) Temp. Windchill Dew Point Humidity Pressure Visibility Wind Dir Wind Speed Gust Speed Precip Events Conditions
12:15 AM 44.6 °F 37.4 °F 42.8 °F 93% 30.12 in 5.0 mi ENE 16.1 mph 23.0 mph 0.07 in Rain Rain
12:35 AM 42.8 °F 35.1 °F 42.8 °F 100% 30.11 in 3.0 mi East 16.1 mph 23.0 mph 0.14 in Rain Light Rain
12:55 AM 42.8 °F 35.1 °F 42.8 °F 100% 30.10 in 5.0 mi East 16.1 mph 23.0 mph 0.24 in Rain Light Rain
1:15 AM 42.8 °F 34.8 °F 42.8 °F 100% 30.08 in 4.0 mi East 17.3 mph 26.5 mph 0.04 in Rain Light Rain
1:35 AM 42.8 °F 35.8 °F 42.8 °F 100% 30.08 in 7.0 mi East 13.8 mph 23.0 mph 0.05 in Rain Light Rain
1:55 AM 44.6 °F 37.2 °F 42.8 °F 93% 30.08 in 7.0 mi East 17.3 mph - 0.05 in   Overcast
2:15 AM 44.6 °F 38.8 °F 42.8 °F 93% 30.06 in 7.0 mi East 11.5 mph 20.7 mph N/A   Overcast
2:35 AM 44.6 °F 37.4 °F 44.6 °F 100% 30.05 in 7.0 mi East 16.1 mph 21.9 mph N/A   Overcast
2:55 AM 44.6 °F 37.8 °F 44.6 °F 100% 30.04 in 7.0 mi East 15.0 mph 19.6 mph N/A   Overcast
3:15 AM 44.6 °F 38.4 °F 44.6 °F 100% 30.04 in 7.0 mi East 12.7 mph 18.4 mph N/A   Overcast
3:35 AM 44.6 °F 39.7 °F 44.6 °F 100% 30.03 in 5.0 mi East 9.2 mph 17.3 mph N/A   Overcast
3:55 AM 44.6 °F 38.8 °F 44.6 °F 100% 30.02 in 5.0 mi East 11.5 mph - N/A   Overcast
4:15 AM 44.6 °F 39.2 °F 44.6 °F 100% 30.02 in 5.0 mi East 10.4 mph - N/A   Overcast
4:35 AM 44.6 °F 38.4 °F 44.6 °F 100% 30.00 in 5.0 mi East 12.7 mph - N/A   Overcast
4:55 AM 44.6 °F 41.4 °F 44.6 °F 100% 30.01 in 5.0 mi ESE 5.8 mph - N/A   Overcast
5:15 AM 44.6 °F 39.2 °F 44.6 °F 100% 29.99 in 5.0 mi East 10.4 mph - N/A   Overcast
5:35 AM 44.6 °F 40.2 °F 44.6 °F 100% 29.98 in 5.0 mi East 8.1 mph 11.5 mph N/A   Overcast
5:55 AM 44.6 °F 38.8 °F 44.6 °F 100% 29.97 in 4.0 mi East 11.5 mph 16.1 mph N/A   Overcast
6:15 AM 44.6 °F 39.7 °F 44.6 °F 100% 29.97 in 4.0 mi East 9.2 mph - N/A   Overcast
6:35 AM 44.6 °F 39.7 °F 44.6 °F 100% 29.96 in 3.0 mi East 9.2 mph - N/A   Overcast
6:55 AM 44.6 °F 40.2 °F 44.6 °F 100% 29.95 in 3.0 mi East 8.1 mph - N/A   Overcast
7:15 AM 44.6 °F 40.7 °F 44.6 °F 100% 29.95 in 2.0 mi East 6.9 mph - N/A   Overcast
7:35 AM 46.4 °F 42.9 °F 46.4 °F 100% 29.94 in 2.0 mi East 6.9 mph - N/A   Overcast
7:55 AM 46.4 °F 42.9 °F 46.4 °F 100% 29.94 in 2.0 mi ESE 6.9 mph - N/A   Overcast
8:15 AM 46.4 °F 43.5 °F 46.4 °F 100% 29.93 in 2.5 mi ESE 5.8 mph - N/A   Clear
8:35 AM 50.0 °F - 50.0 °F 100% 29.93 in 3.0 mi ESE 6.9 mph - N/A   Clear
8:55 AM 51.8 °F - 50.0 °F 94% 29.92 in 5.0 mi SE 5.8 mph - N/A   Clear
9:15 AM 55.4 °F - 51.8 °F 88% 29.91 in 7.0 mi SSE 6.9 mph - N/A   Clear
9:35 AM 57.2 °F - 53.6 °F 88% 29.91 in 7.0 mi South 4.6 mph - N/A   Clear
9:55 AM 59.0 °F - 55.4 °F 88% 29.91 in 10.0 mi South 4.6 mph - N/A   Clear
10:15 AM 64.4 °F - 59.0 °F 83% 29.92 in 10.0 mi SW 11.5 mph 20.7 mph N/A   Mostly Cloudy
10:35 AM 68.0 °F - 59.0 °F 73% 29.92 in 10.0 mi SW 18.4 mph 29.9 mph N/A   Mostly Cloudy
10:55 AM 66.2 °F - 59.0 °F 78% 29.95 in 10.0 mi SW 15.0 mph 25.3 mph 0.01 in   Mostly Cloudy
11:15 AM 64.4 °F - 59.0 °F 83% 29.95 in 10.0 mi SW 10.4 mph 21.9 mph N/A   Overcast
11:35 AM 64.4 °F - 59.0 °F 83% 29.95 in 10.0 mi SW 9.2 mph 17.3 mph N/A   Overcast
11:55 AM 64.4 °F - 59.0 °F 83% 29.96 in 10.0 mi SW 9.2 mph 16.1 mph N/A   Overcast
12:15 PM 64.4 °F - 59.0 °F 83% 29.97 in 10.0 mi SW 11.5 mph 17.3 mph N/A   Overcast
12:35 PM 62.6 °F - 59.0 °F 88% 29.98 in 7.0 mi WSW 9.2 mph 17.3 mph N/A Rain Rain
12:55 PM 60.8 °F - 60.8 °F 100% 29.99 in 4.0 mi WSW 11.5 mph 17.3 mph 0.02 in   Heavy Drizzle
1:15 PM 60.8 °F - 60.8 °F 100% 29.99 in 4.0 mi SW 8.1 mph - 0.01 in   Drizzle
1:35 PM 60.8 °F - 60.8 °F 100% 30.00 in 5.0 mi SW 9.2 mph - 0.01 in   Light Drizzle
1:55 PM 62.6 °F - 60.8 °F 94% 30.00 in 7.0 mi SW 6.9 mph - 0.01 in   Overcast
2:15 PM 62.6 °F - 60.8 °F 94% 29.99 in 10.0 mi SW 6.9 mph - N/A   Mostly Cloudy
2:35 PM 62.6 °F - 60.8 °F 94% 29.99 in 10.0 mi SW 9.2 mph - N/A   Mostly Cloudy
2:55 PM 62.6 °F - 60.8 °F 94% 30.00 in 10.0 mi SW 9.2 mph - N/A   Mostly Cloudy
3:15 PM 62.6 °F - 60.8 °F 94% 30.00 in 10.0 mi SW 9.2 mph - N/A   Overcast
3:35 PM 64.4 °F - 60.8 °F 88% 30.00 in 10.0 mi WSW 8.1 mph - N/A   Scattered Clouds
3:55 PM 64.4 °F - 60.8 °F 88% 30.00 in 10.0 mi WSW 10.4 mph 16.1 mph N/A   Clear
4:15 PM 66.2 °F - 60.8 °F 83% 30.01 in 10.0 mi WSW 8.1 mph - N/A   Scattered Clouds
4:35 PM 68.0 °F - 60.8 °F 78% 30.01 in 10.0 mi SW 6.9 mph - N/A   Scattered Clouds
4:55 PM 68.0 °F - 60.8 °F 78% 30.01 in 10.0 mi SSW 6.9 mph - N/A   Scattered Clouds
5:15 PM 68.0 °F - 60.8 °F 78% 30.01 in 10.0 mi SW 5.8 mph - N/A   Scattered Clouds
5:35 PM 69.8 °F - 60.8 °F 73% 30.01 in 10.0 mi WSW 11.5 mph - N/A   Clear
5:55 PM 69.8 °F - 59.0 °F 68% 30.01 in 10.0 mi West 10.4 mph - N/A   Scattered Clouds
6:15 PM 68.0 °F - 59.0 °F 73% 30.02 in 10.0 mi West 10.4 mph 16.1 mph N/A   Scattered Clouds
6:35 PM 68.0 °F - 59.0 °F 73% 30.02 in 10.0 mi West 6.9 mph - N/A   Clear
6:55 PM 68.0 °F - 59.0 °F 73% 30.03 in 10.0 mi West 6.9 mph - N/A   Clear
7:15 PM 68.0 °F - 59.0 °F 73% 30.03 in 10.0 mi West 4.6 mph - N/A   Scattered Clouds
7:35 PM 66.2 °F - 60.8 °F 83% 30.02 in 10.0 mi NW 3.5 mph - N/A   Mostly Cloudy
7:55 PM 64.4 °F - 60.8 °F 88% 30.04 in 10.0 mi SSW 3.5 mph - N/A Rain Rain
8:15 PM 62.6 °F - 60.8 °F 94% 30.05 in 10.0 mi SSW 4.6 mph - N/A   Light Drizzle
8:35 PM 62.6 °F - 60.8 °F 94% 30.05 in 10.0 mi South 3.5 mph - N/A   Mostly Cloudy
8:55 PM 62.6 °F - 60.8 °F 94% 30.05 in 10.0 mi SSW 3.5 mph - N/A   Scattered Clouds
9:15 PM 62.6 °F - 60.8 °F 94% 30.05 in 10.0 mi NW 4.6 mph - N/A   Clear
9:35 PM 62.6 °F - 60.8 °F 94% 30.05 in 10.0 mi Calm Calm - N/A   Mostly Cloudy
9:55 PM 62.6 °F - 60.8 °F 94% 30.06 in 10.0 mi Calm Calm - N/A   Overcast
10:35 PM 60.8 °F - 60.8 °F 100% 30.07 in 10.0 mi Calm Calm - N/A   Overcast
10:55 PM 62.6 °F - 60.8 °F 94% 30.08 in 10.0 mi Calm Calm - N/A   Overcast
11:15 PM 60.8 °F - 57.2 °F 88% 30.08 in 10.0 mi North 6.9 mph - N/A   Overcast
11:35 PM 59.0 °F - 55.4 °F 88% 30.08 in 7.0 mi North 3.5 mph - N/A   Overcast
11:55 PM 57.2 °F - 55.4 °F 94% 30.09 in 7.0 mi NNW 5.8 mph - N/A   Overcast